FW4251 Weather Reports


Display with metric or nautical units.
time (UTC)temp
F
wind
direction
speed
MPH
gust
MPH
rain 1hr
in
rain 24hr
in
rain mn
in
humidity
%
barometer
mb
20260906045611 66 60 1.0 4.0 0.00 0.00 0.00 79 1013.5
20260906045012 66 59 0.0 3.0 0.00 0.00 0.00 79 1013.3
20260906044509 66 59 0.0 3.0 0.00 0.00 0.00 79 1013.3
20260906044011 66 59 1.0 3.0 0.00 0.00 0.00 79 1013.3
20260906043510 66 59 0.0 1.0 0.00 0.00 0.00 79 1013.3
20260906043007 66 59 0.0 3.0 0.00 0.00 0.00 78 1013.1
20260906042506 66 59 0.0 5.0 0.00 0.00 0.00 79 1013.1
20260906042005 65 59 1.0 5.0 0.00 0.00 0.00 79 1013.1
20260906041507 65 55 0.0 7.0 0.00 0.00 0.00 79 1013.1
20260906041007 65 78 2.0 7.0 0.00 0.00 0.00 79 1013.0
20260906040504 65 23 1.0 5.0 0.00 0.00 0.00 80 1013.1
20260906040009 65 56 0.0 5.0 0.00 0.00 0.00 81 1013.1
20260906035503 65 56 0.0 5.0 0.00 0.00 0.00 81 1013.2
20260906035004 65 40 0.0 2.0 0.00 0.00 0.00 82 1013.0
20260906034502 65 40 0.0 3.0 0.00 0.00 0.00 82 1013.1
20260906034003 65 40 0.0 6.0 0.00 0.00 0.00 83 1013.1
20260906033502 64 40 0.0 6.0 0.00 0.00 0.00 83 1013.1
20260906033002 64 21 1.0 3.0 0.00 0.00 0.00 83 1013.0
20260906032502 64 9 0.0 2.0 0.00 0.00 0.00 83 1013.1
20260906032001 64 9 0.0 3.0 0.00 0.00 0.00 83 1013.0
20260906031500 64 9 0.0 3.0 0.00 0.00 0.00 83 1012.9
20260906031002 64 5 0.0 0.0 0.00 0.00 0.00 82 1012.9
20260906030502 64 5 0.0 0.0 0.00 0.00 0.00 82 1012.9
20260906030001 64 5 0.0 0.0 0.00 0.00 0.00 82 1012.9
20260906025500 64 5 0.0 0.0 0.00 0.00 0.00 82 1012.9
20260906025101 64 5 0.0 0.0 0.00 0.00 0.00 81 1012.9
20260906024601 64 5 0.0 0.0 0.00 0.00 0.00 81 1012.9
20260906024100 64 5 0.0 0.0 0.00 0.00 0.00 81 1012.9
20260906023600 65 5 0.0 0.0 0.00 0.00 0.00 80 1012.9
20260906023100 65 5 0.0 0.0 0.00 0.00 0.00 80 1012.9
20260906022559 65 5 0.0 0.0 0.00 0.00 0.00 80 1013.0
20260906022100 65 5 0.0 0.0 0.00 0.00 0.00 80 1012.9
20260906021603 65 5 0.0 0.0 0.00 0.00 0.00 79 1012.8
20260906021059 65 5 0.0 0.0 0.00 0.00 0.00 79 1012.9
20260906020600 65 5 0.0 0.0 0.00 0.00 0.00 78 1012.8
20260906020106 65 5 0.0 0.0 0.00 0.00 0.00 78 1012.8
20260906015558 66 5 0.0 0.0 0.00 0.00 0.00 78 1012.8
20260906015058 66 5 0.0 0.0 0.00 0.00 0.00 77 1012.8
20260906014558 66 5 0.0 0.0 0.00 0.00 0.00 77 1012.9
20260906014101 66 5 0.0 0.0 0.00 0.00 0.00 77 1012.9
20260906013556 66 5 0.0 0.0 0.00 0.00 0.00 77 1012.7
20260906013105 67 5 0.0 0.0 0.00 0.00 0.00 76 1012.6
20260906012554 67 5 0.0 0.0 0.00 0.00 0.00 75 1012.6
20260906012055 67 5 0.0 0.0 0.00 0.00 0.00 75 1012.7
20260906011555 67 5 0.0 0.0 0.00 0.00 0.00 75 1012.7
20260906011054 68 5 0.0 0.0 0.00 0.00 0.00 74 1012.6
20260906010554 68 5 0.0 0.0 0.00 0.00 0.00 74 1012.6
20260906010055 68 5 0.0 2.0 0.00 0.00 0.00 74 1012.6
20260906005553 68 5 0.0 2.0 0.00 0.00 0.00 74 1012.5
20260906005054 68 5 0.0 3.0 0.00 0.00 0.00 73 1012.4
20260906004555 69 5 1.0 3.0 0.00 0.00 0.00 72 1012.5
20260906004053 69 9 0.0 1.0 0.00 0.00 0.00 72 1012.4
20260906003551 69 9 0.0 4.0 0.00 0.00 0.00 72 1012.3
20260906003051 69 9 1.0 4.0 0.00 0.00 0.00 71 1012.3
20260906002550 70 5 0.0 2.0 0.00 0.00 0.00 71 1012.1
20260906002052 70 5 0.0 2.0 0.00 0.00 0.00 70 1012.1
20260906001550 70 5 0.0 0.0 0.00 0.00 0.00 70 1012.0
20260906001054 71 5 0.0 0.0 0.00 0.00 0.00 70 1012.0
20260906000550 71 5 0.0 0.0 0.00 0.00 0.00 70 1012.1
20260905235549 71 5 0.0 1.0 0.00 0.00 0.00 70 1012.0
20260905235049 71 5 0.0 3.0 0.00 0.00 0.00 69 1012.0
20260905234601 71 5 0.0 6.0 0.00 0.00 0.00 68 1012.0
20260905234048 71 304 2.0 6.0 0.00 0.00 0.00 67 1012.0
20260905233548 71 355 2.0 4.0 0.00 0.00 0.00 67 1011.8
20260905233048 72 15 1.0 3.0 0.00 0.00 0.00 68 1011.8
20260905232546 72 15 0.0 3.0 0.00 0.00 0.00 68 1011.8
20260905232047 72 15 0.0 4.0 0.00 0.00 0.00 68 1011.8
20260905231547 72 15 1.0 5.0 0.00 0.00 0.00 68 1011.7
20260905231046 73 15 1.0 5.0 0.00 0.00 0.00 68 1011.9
20260905230546 73 53 0.0 2.0 0.00 0.00 0.00 68 1011.8
20260905230046 73 53 0.0 2.0 0.00 0.00 0.00 67 1011.7
20260905225547 73 53 0.0 0.0 0.00 0.00 0.00 67 1011.5
20260905225046 73 53 0.0 4.0 0.00 0.00 0.00 67 1011.6
20260905224546 73 53 1.0 6.0 0.00 0.00 0.00 66 1011.6
20260905224045 74 53 2.0 6.0 0.00 0.00 0.00 65 1011.6
20260905223545 74 5 0.0 3.0 0.00 0.00 0.00 66 1011.7
20260905223049 74 5 0.0 3.0 0.00 0.00 0.00 66 1011.6
20260905222545 74 5 1.0 5.0 0.00 0.00 0.00 65 1011.7
20260905222044 75 344 1.0 6.0 0.00 0.00 0.00 65 1011.6
20260905221548 75 348 1.0 6.0 0.00 0.00 0.00 64 1011.5
20260905221049 75 18 1.0 9.0 0.00 0.00 0.00 64 1011.5
20260905220544 76 27 2.0 6.0 0.00 0.00 0.00 63 1011.5
20260905220044 76 30 1.0 4.0 0.00 0.00 0.00 65 1011.4
20260905215544 76 26 1.0 4.0 0.00 0.00 0.00 63 1011.7
20260905215043 76 36 0.0 4.0 0.00 0.00 0.00 64 1011.5
20260905214544 76 36 2.0 5.0 0.00 0.00 0.00 64 1011.4
20260905214044 76 9 2.0 9.0 0.00 0.00 0.00 62 1011.4
20260905213542 77 327 2.0 9.0 0.00 0.00 0.00 62 1011.3
20260905213043 77 340 2.0 9.0 0.00 0.00 0.00 62 1011.3
20260905212543 78 60 1.0 8.0 0.00 0.00 0.00 63 1011.2
20260905212043 78 34 2.0 8.0 0.00 0.00 0.00 63 1011.1
20260905211542 77 360 2.0 4.0 0.00 0.00 0.00 64 1010.9
20260905211042 77 90 0.0 8.0 0.00 0.00 0.00 65 1010.9
20260905210541 77 96 1.0 8.0 0.00 0.00 0.00 65 1011.0
20260905210054 76 17 0.0 3.0 0.00 0.00 0.00 65 1011.0
20260905205546 76 13 0.0 4.0 0.00 0.00 0.00 64 1011.1
20260905205045 77 46 2.0 7.0 0.00 0.00 0.00 64 1010.9
20260905204543 77 314 1.0 7.0 0.00 0.00 0.00 63 1010.8
20260905204041 77 329 1.0 6.0 0.00 0.00 0.00 62 1010.7
20260905203544 78 34 1.0 9.0 0.00 0.00 0.00 62 1010.7
20260905203057 77 38 1.0 9.0 0.00 0.00 0.00 61 1010.7
20260905202539 77 32 1.0 8.0 0.00 0.00 0.00 61 1010.7
20260905202043 77 46 1.0 6.0 0.00 0.00 0.00 63 1010.6
20260905201540 77 93 1.0 6.0 0.00 0.00 0.00 62 1010.7
20260905201039 78 44 0.0 6.0 0.00 0.00 0.00 61 1010.7
20260905200539 78 46 2.0 6.0 0.00 0.00 0.00 62 1010.6
20260905200041 78 14 2.0 5.0 0.00 0.00 0.00 59 1010.7
20260905195539 78 70 0.0 5.0 0.00 0.00 0.00 60 1010.7
20260905195039 79 59 0.0 6.0 0.00 0.00 0.00 59 1010.8
20260905194539 79 59 1.0 6.0 0.00 0.00 0.00 59 1010.8
20260905194040 80 340 1.0 5.0 0.00 0.00 0.00 58 1010.8
20260905193538 80 74 1.0 5.0 0.00 0.00 0.00 57 1010.7
20260905193038 81 50 1.0 5.0 0.00 0.00 0.00 57 1010.7
20260905192538 81 53 2.0 5.0 0.00 0.00 0.00 58 1010.7
20260905192039 81 45 1.0 6.0 0.00 0.00 0.00 58 1010.7
20260905191541 80 76 2.0 6.0 0.00 0.00 0.00 60 1010.7
20260905191037 80 89 3.0 11.0 0.00 0.00 0.00 60 1010.6
20260905190536 80 85 6.0 11.0 0.00 0.00 0.00 58 1010.7
20260905190036 80 105 4.0 9.0 0.00 0.00 0.00 58 1010.6
20260905185536 81 351 1.0 11.0 0.00 0.00 0.00 59 1010.7
20260905185035 81 14 1.0 6.0 0.00 0.00 0.00 59 1010.7
20260905184543 81 33 1.0 6.0 0.00 0.00 0.00 61 1010.8
20260905184035 81 65 1.0 10.0 0.00 0.00 0.00 60 1010.7
20260905183534 81 78 3.0 10.0 0.00 0.00 0.00 60 1010.7
20260905183034 80 80 4.0 8.0 0.00 0.00 0.00 60 1010.7
20260905182534 80 81 1.0 8.0 0.00 0.00 0.00 59 1010.9
20260905182034 80 65 2.0 4.0 0.00 0.00 0.00 58 1010.7
20260905181533 81 57 1.0 4.0 0.00 0.00 0.00 60 1010.9
20260905181032 80 46 2.0 7.0 0.00 0.00 0.00 59 1010.8
20260905180531 80 355 1.0 7.0 0.00 0.00 0.00 56 1010.9
20260905180030 80 83 1.0 9.0 0.00 0.00 0.00 60 1010.7
20260905175530 80 85 5.0 9.0 0.00 0.00 0.00 62 1010.7
20260905175028 79 319 3.0 8.0 0.00 0.00 0.00 58 1010.9
20260905174531 79 340 3.0 8.0 0.00 0.00 0.00 60 1010.8
20260905174026 79 60 2.0 8.0 0.00 0.00 0.00 60 1010.8
20260905173525 79 345 3.0 6.0 0.00 0.00 0.00 59 1010.9
20260905173026 79 347 2.0 6.0 0.00 0.00 0.00 61 1011.0
20260905172523 78 23 2.0 8.0 0.00 0.00 0.00 61 1011.0
20260905172023 78 355 1.0 5.0 0.00 0.00 0.00 61 1010.9
20260905171533 78 355 1.0 4.0 0.00 0.00 0.00 63 1011.1
20260905171022 78 13 1.0 7.0 0.00 0.00 0.00 62 1011.2
20260905170522 78 100 2.0 7.0 0.00 0.00 0.00 62 1011.2
20260905170025 78 64 1.0 8.0 0.00 0.00 0.00 62 1011.2
20260905165526 78 321 2.0 8.0 0.00 0.00 0.00 62 1011.2
20260905165027 77 63 2.0 9.0 0.00 0.00 0.00 65 1011.2
20260905164522 78 355 4.0 9.0 0.00 0.00 0.00 61 1011.2
20260905164021 78 33 1.0 10.0 0.00 0.00 0.00 62 1011.2
20260905163521 78 85 2.0 10.0 0.00 0.00 0.00 64 1011.1
20260905163027 78 78 1.0 11.0 0.00 0.00 0.00 65 1011.1
20260905162520 78 42 2.0 12.0 0.00 0.00 0.00 65 1011.1
20260905162020 78 92 2.0 12.0 0.00 0.00 0.00 63 1011.0
20260905161518 77 84 3.0 10.0 0.00 0.00 0.00 66 1011.2
20260905161018 77 82 5.0 13.0 0.00 0.00 0.00 66 1011.1
20260905160516 77 87 4.0 13.0 0.00 0.00 0.00 65 1011.1
20260905160016 77 84 2.0 5.0 0.00 0.00 0.00 67 1011.0
20260905155515 77 82 2.0 9.0 0.00 0.00 0.00 65 1011.0
20260905155015 77 19 4.0 9.0 0.00 0.00 0.00 67 1011.0
20260905154514 77 331 2.0 9.0 0.00 0.00 0.00 67 1011.0
20260905154013 76 5 1.0 10.0 0.00 0.00 0.00 69 1011.0
20260905153513 76 5 3.0 10.0 0.00 0.00 0.00 68 1011.1
20260905153011 76 74 1.0 9.0 0.00 0.00 0.00 70 1011.2
20260905152508 75 78 5.0 9.0 0.00 0.00 0.00 71 1011.1
20260905152007 75 54 2.0 11.0 0.00 0.00 0.00 70 1011.1
20260905151506 74 59 2.0 7.0 0.00 0.00 0.00 69 1011.2
20260905151007 74 59 1.0 9.0 0.00 0.00 0.00 70 1011.3
20260905150503 74 77 3.0 10.0 0.00 0.00 0.00 72 1011.4
20260905150001 73 103 3.0 10.0 0.00 0.00 0.00 73 1011.4
20260905145604 73 79 1.0 10.0 0.00 0.00 0.00 74 1011.4
20260905145059 72 31 2.0 10.0 0.00 0.00 0.00 76 1011.4
20260905144559 71 71 3.0 7.0 0.00 0.00 0.00 79 1011.3
20260905144100 70 53 1.0 5.0 0.00 0.00 0.00 80 1011.3
20260905143554 69 9 1.0 5.0 0.00 0.00 0.00 81 1011.3
20260905143102 69 20 2.0 4.0 0.00 0.00 0.00 82 1011.3
20260905142554 68 45 1.0 4.0 0.00 0.00 0.00 83 1011.3
20260905142051 68 355 1.0 7.0 0.00 0.00 0.00 85 1011.3
20260905141550 67 87 2.0 7.0 0.00 0.00 0.00 87 1011.3
20260905141048 67 89 2.0 6.0 0.00 0.00 0.00 88 1011.3
20260905140551 66 40 1.0 5.0 0.00 0.00 0.00 89 1011.1
20260905140046 66 55 2.0 7.0 0.00 0.00 0.00 91 1011.1
20260905135546 65 355 2.0 7.0 0.00 0.00 0.00 92 1011.1
20260905135046 65 58 1.0 4.0 0.00 0.00 0.00 93 1011.2
20260905134546 65 91 0.0 7.0 0.00 0.00 0.00 93 1011.1
20260905134046 64 91 3.0 7.0 0.00 0.00 0.00 94 1011.3
20260905133547 64 98 1.0 7.0 0.00 0.00 0.00 94 1011.2
20260905133044 64 261 0.0 3.0 0.00 0.00 0.00 94 1011.3
20260905132544 63 257 0.0 2.0 0.00 0.00 0.00 94 1011.4
20260905132045 63 257 0.0 3.0 0.00 0.00 0.00 94 1011.4
20260905131543 63 257 1.0 3.0 0.00 0.00 0.00 94 1011.3
20260905131044 63 256 0.0 3.0 0.00 0.00 0.00 94 1011.4
20260905130547 63 198 0.0 3.0 0.00 0.00 0.00 94 1011.6
20260905130048 62 198 0.0 2.0 0.00 0.00 0.00 94 1011.6
20260905125542 62 198 0.0 2.0 0.00 0.00 0.00 94 1011.7
20260905125042 62 197 0.0 0.0 0.00 0.00 0.00 94 1011.8
20260905124542 62 198 0.0 0.0 0.00 0.00 0.00 94 1011.7
20260905124041 62 198 0.0 1.0 0.00 0.00 0.00 94 1011.7
20260905123541 62 198 0.0 2.0 0.00 0.00 0.00 94 1011.8
20260905123041 61 198 0.0 2.0 0.00 0.00 0.00 94 1011.8
20260905122540 61 198 0.0 3.0 0.00 0.00 0.00 94 1011.7
20260905122039 61 198 0.0 3.0 0.00 0.00 0.00 94 1011.7
20260905121540 61 197 1.0 2.0 0.00 0.00 0.00 94 1011.6
20260905121038 61 197 0.0 0.0 0.00 0.00 0.00 94 1011.6
20260905120538 61 197 0.0 0.0 0.00 0.00 0.00 93 1011.5
20260905120048 61 195 0.0 0.0 0.00 0.00 0.00 93 1011.6
20260905115536 60 324 0.0 0.0 0.00 0.00 0.00 93 1011.6
20260905115036 60 324 0.0 0.0 0.00 0.00 0.00 93 1011.5
20260905114536 60 324 0.0 2.0 0.00 0.00 0.00 93 1011.4
20260905114037 60 324 0.0 2.0 0.00 0.00 0.00 93 1011.4
20260905113536 59 324 0.0 2.0 0.00 0.00 0.00 93 1011.3
20260905113035 59 324 0.0 3.0 0.00 0.00 0.00 93 1011.2
20260905112535 59 323 0.0 3.0 0.00 0.00 0.00 93 1011.1
20260905112035 59 323 1.0 3.0 0.00 0.00 0.00 93 1011.0
20260905111536 59 323 0.0 3.0 0.00 0.00 0.00 92 1010.8
20260905111034 59 323 0.0 3.0 0.00 0.00 0.00 92 1010.8
20260905110535 58 323 1.0 3.0 0.00 0.00 0.00 92 1010.7
20260905110034 58 323 1.0 3.0 0.00 0.00 0.00 92 1010.6
20260905105533 58 323 0.0 0.0 0.00 0.00 0.00 92 1010.5
20260905105034 58 323 0.0 0.0 0.00 0.00 0.00 92 1010.5
20260905104537 58 323 0.0 2.0 0.00 0.00 0.00 92 1010.5
20260905104034 58 323 1.0 4.0 0.00 0.00 0.00 92 1010.4
20260905103532 58 323 1.0 3.0 0.00 0.00 0.00 92 1010.2
20260905103032 58 323 0.0 2.0 0.00 0.00 0.00 92 1010.2
20260905102531 59 323 0.0 2.0 0.00 0.00 0.00 91 1010.1
20260905102030 59 323 0.0 2.0 0.00 0.00 0.00 91 1010.2
20260905101532 59 323 1.0 2.0 0.00 0.00 0.00 91 1010.2
20260905101029 59 323 0.0 2.0 0.00 0.00 0.00 91 1010.1
20260905100529 59 323 1.0 2.0 0.00 0.00 0.00 91 1010.1
20260905100029 59 323 0.0 0.0 0.00 0.00 0.00 91 1010.1
20260905095529 59 323 0.0 0.0 0.00 0.00 0.00 91 1010.2
20260905095029 59 323 0.0 0.0 0.00 0.00 0.00 91 1010.2
20260905094557 59 323 0.0 1.0 0.00 0.00 0.00 91 1010.2
20260905094032 59 323 0.0 1.0 0.00 0.00 0.00 91 1010.2
20260905093527 59 323 0.0 2.0 0.00 0.00 0.00 91 1010.1
20260905093027 59 323 0.0 3.0 0.00 0.00 0.00 91 1010.2
20260905092526 59 323 0.0 0.0 0.00 0.00 0.00 91 1010.2
20260905092031 59 323 0.0 2.0 0.00 0.00 0.00 91 1010.2
20260905091525 59 323 1.0 2.0 0.00 0.00 0.00 91 1010.2
20260905091027 59 323 0.0 2.0 0.00 0.00 0.00 90 1010.2
20260905090524 60 323 0.0 0.0 0.00 0.00 0.00 91 1010.2
20260905090026 60 323 0.0 2.0 0.00 0.00 0.00 90 1010.2
20260905085524 60 323 0.0 2.0 0.00 0.00 0.00 90 1010.3
20260905085027 60 323 0.0 0.0 0.00 0.00 0.00 90 1010.2
20260905084523 60 323 0.0 2.0 0.00 0.00 0.00 90 1010.2
20260905084024 60 323 0.0 2.0 0.00 0.00 0.00 90 1010.2
20260905083522 60 323 0.0 0.0 0.00 0.00 0.00 90 1010.2
20260905083022 60 323 0.0 0.0 0.00 0.00 0.00 90 1010.3
20260905082522 60 323 0.0 0.0 0.00 0.00 0.00 90 1010.2
20260905082021 60 323 0.0 2.0 0.00 0.00 0.00 90 1010.3
20260905081521 60 323 0.0 3.0 0.00 0.00 0.00 90 1010.2
20260905081021 60 324 1.0 2.0 0.00 0.00 0.00 90 1010.2
20260905080525 60 324 0.0 2.0 0.00 0.00 0.00 90 1010.3
20260905080020 60 324 0.0 2.0 0.00 0.00 0.00 89 1010.2
20260905075520 60 324 1.0 2.0 0.00 0.00 0.00 89 1010.2
20260905075018 60 324 0.0 0.0 0.00 0.00 0.00 89 1010.3
20260905074518 61 324 0.0 0.0 0.00 0.00 0.00 89 1010.3
20260905074019 61 324 0.0 0.0 0.00 0.00 0.00 89 1010.4
20260905073518 61 324 0.0 0.0 0.00 0.00 0.00 89 1010.3
20260905073016 61 324 0.0 2.0 0.00 0.00 0.00 89 1010.3
20260905072518 61 324 0.0 2.0 0.00 0.00 0.00 89 1010.2
20260905072015 61 324 0.0 0.0 0.00 0.00 0.00 89 1010.3
20260905071514 61 324 0.0 0.0 0.00 0.00 0.00 89 1010.4
20260905071013 61 324 0.0 0.0 0.00 0.00 0.00 89 1010.5
20260905070513 61 324 0.0 2.0 0.00 0.00 0.00 89 1010.4
20260905070013 61 324 0.0 2.0 0.00 0.00 0.00 89 1010.7
20260905065512 61 323 0.0 2.0 0.00 0.00 0.00 89 1010.6
20260905065014 62 323 0.0 2.0 0.00 0.00 0.00 88 1010.6
20260905064511 62 323 0.0 2.0 0.00 0.00 0.00 88 1010.6
20260905064012 62 323 0.0 2.0 0.00 0.00 0.00 88 1010.6
20260905063510 62 323 0.0 0.0 0.00 0.00 0.00 88 1010.6
20260905063011 62 323 0.0 0.0 0.00 0.00 0.00 87 1010.7
20260905062510 62 323 0.0 0.0 0.00 0.00 0.00 87 1010.6
20260905062008 62 323 0.0 0.0 0.00 0.00 0.00 87 1010.7
20260905061507 62 323 0.0 0.0 0.00 0.00 0.00 87 1010.7
20260905061006 62 323 0.0 0.0 0.00 0.00 0.00 87 1010.8
20260905060506 62 323 0.0 0.0 0.00 0.00 0.00 87 1010.8
20260905060008 62 323 0.0 0.0 0.00 0.00 0.00 87 1010.9
20260905055505 62 323 0.0 0.0 0.00 0.00 0.00 86 1010.9
20260905055004 63 323 0.0 0.0 0.00 0.00 0.00 86 1010.8
20260905054504 63 323 0.0 0.0 0.00 0.00 0.00 86 1010.9
20260905054003 63 323 0.0 2.0 0.00 0.00 0.00 86 1011.0
20260905053503 63 323 0.0 2.0 0.00 0.00 0.00 86 1011.1
20260905053002 63 323 0.0 0.0 0.00 0.00 0.00 86 1011.1
20260905052500 63 323 0.0 0.0 0.00 0.00 0.00 86 1011.2
20260905052102 63 323 0.0 0.0 0.00 0.00 0.00 85 1011.2
20260905051610 63 323 0.0 0.0 0.00 0.00 0.00 85 1011.4
20260905051102 64 323 0.0 0.0 0.00 0.00 0.00 84 1011.4
20260905050559 64 323 0.0 0.0 0.00 0.00 0.00 84 1011.4
20260905050104 64 323 0.0 0.0 0.00 0.00 0.00 84 1011.3